Durant, OK

2:18 AM CDT on April 24, 2018 (GMT -0500)
Eaker

Weather History for KDUA - May, 2014

Change the Weather History Date:

Tuesday, May 13, 2014

  Actual Average (KMLC) Record (KMLC)
Temperature  
Mean Temperature 60 °F -  
Max Temperature 68 °F 79 °F 92 °F (1956)
Min Temperature 53 °F 57 °F 43 °F (1960)
Degree Days  
Heating Degree Days 4    
Growing Degree Days 10 (Base 50)    
Moisture  
Dew Point 50 °F    
Average Humidity 72    
Maximum Humidity 94    
Minimum Humidity 52    
Precipitation  
Precipitation 0.10 in - - ()
Sea Level Pressure  
Sea Level Pressure 30.16 in    
Wind  
Wind Speed 12 mph (NNW)    
Max Wind Speed 18 mph    
Max Gust Speed 25 mph    
Visibility 10 miles    
Events Rain    
Averages and records for this station are not official NWS values.
T = Trace of Precipitation, MM = Missing Value Source: NWS Daily Summary

Daily Weather History Graph

Daily Weather History Graph

Search for Another Location

Airport or City:

Astronomy

May. 13, 2014 Rise Set
Actual Time 6:25 AM CDT 8:18 PM CDT
Civil Twilight 5:58 AM CDT 8:46 PM CDT
Nautical Twilight 5:25 AM CDT 9:19 PM CDT
Astronomical Twilight 4:49 AM CDT 9:54 PM CDT
Moon 7:24 PM CDT (5/13) 5:38 AM CDT (5/13)
Length of Visible Light 14h 47m
Length of Day
13h 52m
Waxing Gibbous, 99% of the Moon is Illuminated
May 13
Waxing Gibbous
May 14
Full
May 21
Last Quarter
May 28
New
Jun 5
First Quarter

Hourly Weather History & Observations

Time (CDT) Temp. Dew Point Humidity Pressure Visibility Wind Dir Wind Speed Gust Speed Precip Events Conditions
12:15 AM 59.0 °F 55.4 °F 88% 30.09 in 10.0 mi NNW 9.2 mph - N/A Rain Light Rain
12:35 AM 57.2 °F 55.4 °F 94% 30.11 in 10.0 mi NNW 9.2 mph - 0.01 in   Drizzle
12:55 AM 57.2 °F 55.4 °F 94% 30.11 in 7.0 mi NNW 9.2 mph - 0.04 in Rain Light Rain
1:15 AM 57.2 °F 55.4 °F 94% 30.10 in 10.0 mi North 10.4 mph - 0.01 in   Light Drizzle
1:35 AM 57.2 °F 55.4 °F 94% 30.09 in 10.0 mi NNW 11.5 mph - 0.01 in   Overcast
1:55 AM 57.2 °F 53.6 °F 88% 30.08 in 10.0 mi NNW 18.4 mph 23.0 mph 0.01 in   Overcast
2:15 AM 55.4 °F 51.8 °F 88% 30.09 in 10.0 mi North 12.7 mph 25.3 mph N/A   Overcast
2:35 AM 55.4 °F 51.8 °F 88% 30.09 in 10.0 mi NNW 18.4 mph 25.3 mph N/A   Overcast
2:55 AM 55.4 °F 51.8 °F 88% 30.08 in 10.0 mi North 16.1 mph 23.0 mph N/A   Overcast
3:15 AM 55.4 °F 50.0 °F 82% 30.07 in 10.0 mi North 17.3 mph - N/A   Overcast
3:35 AM 55.4 °F 50.0 °F 82% 30.07 in 10.0 mi NNW 17.3 mph 25.3 mph N/A   Overcast
3:55 AM 55.4 °F 50.0 °F 82% 30.08 in 10.0 mi NNW 16.1 mph 23.0 mph N/A   Overcast
4:15 AM 53.6 °F 48.2 °F 82% 30.09 in 10.0 mi NNW 12.7 mph 19.6 mph N/A   Overcast
4:55 AM 53.6 °F 46.4 °F 77% 30.08 in 10.0 mi NNW 15.0 mph 24.2 mph N/A   Overcast
5:15 AM 53.6 °F 46.4 °F 77% 30.09 in 10.0 mi NNW 12.7 mph 19.6 mph N/A   Overcast
5:35 AM 53.6 °F 46.4 °F 77% 30.10 in 10.0 mi North 16.1 mph 20.7 mph N/A   Overcast
5:55 AM 53.6 °F 46.4 °F 77% 30.10 in 10.0 mi NW 17.3 mph 23.0 mph N/A   Overcast
6:15 AM 53.6 °F 46.4 °F 77% 30.10 in 10.0 mi NNW 17.3 mph 21.9 mph N/A   Overcast
6:35 AM 53.6 °F 46.4 °F 77% 30.12 in 10.0 mi NNW 11.5 mph 18.4 mph N/A   Overcast
6:55 AM 53.6 °F 46.4 °F 77% 30.13 in 10.0 mi NNW 12.7 mph - N/A   Overcast
8:15 AM 53.6 °F 46.4 °F 77% 30.17 in 10.0 mi NNW 13.8 mph 20.7 mph N/A   Overcast
8:35 AM 53.6 °F 46.4 °F 77% 30.17 in 10.0 mi NNW 13.8 mph 18.4 mph N/A   Overcast
8:55 AM 53.6 °F 46.4 °F 77% 30.17 in 10.0 mi NNW 13.8 mph 17.3 mph N/A   Mostly Cloudy
9:15 AM 53.6 °F 46.4 °F 77% 30.17 in 10.0 mi NNW 13.8 mph - N/A   Scattered Clouds
10:55 AM 55.4 °F 46.4 °F 72% 30.21 in 10.0 mi NNW 13.8 mph 20.7 mph N/A   Overcast
11:35 AM 55.4 °F 46.4 °F 72% 30.21 in 10.0 mi NNW 18.4 mph 23.0 mph N/A   Overcast
12:15 PM 59.0 °F 46.4 °F 63% 30.22 in 10.0 mi NNW 13.8 mph 21.9 mph N/A   Overcast
12:35 PM 59.0 °F 48.2 °F 67% 30.22 in 10.0 mi NNW 16.1 mph 21.9 mph N/A   Overcast
12:55 PM 60.8 °F 48.2 °F 63% 30.22 in 10.0 mi NNW 15.0 mph - N/A   Mostly Cloudy
1:15 PM 60.8 °F 48.2 °F 63% 30.22 in 10.0 mi NNW 11.5 mph - N/A   Mostly Cloudy
1:35 PM 60.8 °F 48.2 °F 63% 30.21 in 10.0 mi NNW 15.0 mph 19.6 mph N/A   Mostly Cloudy
1:55 PM 62.6 °F 50.0 °F 63% 30.21 in 10.0 mi North 12.7 mph 20.7 mph N/A   Scattered Clouds
2:15 PM 62.6 °F 50.0 °F 63% 30.20 in 10.0 mi NNW 10.4 mph 16.1 mph N/A   Scattered Clouds
2:35 PM 62.6 °F 50.0 °F 63% 30.20 in 10.0 mi NNW 8.1 mph - N/A   Mostly Cloudy
2:55 PM 64.4 °F 50.0 °F 59% 30.20 in 10.0 mi NNW 8.1 mph 17.3 mph N/A   Mostly Cloudy
3:15 PM 64.4 °F 50.0 °F 59% 30.19 in 10.0 mi NNW 10.4 mph - N/A   Scattered Clouds
3:35 PM 64.4 °F 50.0 °F 59% 30.18 in 10.0 mi North 13.8 mph 17.3 mph N/A   Scattered Clouds
3:55 PM 66.2 °F 50.0 °F 56% 30.17 in 10.0 mi NNW 15.0 mph - N/A   Scattered Clouds
4:15 PM 68.0 °F 50.0 °F 52% 30.17 in 10.0 mi North 13.8 mph - N/A   Scattered Clouds
4:35 PM 68.0 °F 51.8 °F 56% 30.17 in 10.0 mi NNW 12.7 mph 16.1 mph N/A   Clear
4:55 PM 68.0 °F 50.0 °F 52% 30.16 in 10.0 mi North 12.7 mph 18.4 mph N/A   Scattered Clouds
5:15 PM 68.0 °F 50.0 °F 52% 30.16 in 10.0 mi NNW 10.4 mph 19.6 mph N/A   Scattered Clouds
5:35 PM 68.0 °F 50.0 °F 52% 30.17 in 10.0 mi NNW 10.4 mph 17.3 mph N/A   Clear
5:55 PM 66.2 °F 48.2 °F 52% 30.17 in 10.0 mi NW 12.7 mph 18.4 mph N/A   Clear
6:15 PM 64.4 °F 50.0 °F 59% 30.18 in 10.0 mi NW 11.5 mph - N/A   Clear
6:35 PM 64.4 °F 50.0 °F 59% 30.18 in 10.0 mi NW 10.4 mph - N/A   Clear
6:55 PM 64.4 °F 50.0 °F 59% 30.18 in 10.0 mi NNW 11.5 mph - N/A   Clear
7:15 PM 64.4 °F 50.0 °F 59% 30.18 in 10.0 mi WNW 9.2 mph - N/A   Clear
7:35 PM 62.6 °F 50.0 °F 63% 30.18 in 10.0 mi NNW 9.2 mph - N/A   Clear
8:15 PM 62.6 °F 51.8 °F 68% 30.18 in 10.0 mi NNW 6.9 mph - N/A   Clear
8:35 PM 62.6 °F 51.8 °F 68% 30.18 in 10.0 mi North 8.1 mph - N/A   Clear
8:55 PM 60.8 °F 51.8 °F 72% 30.18 in 10.0 mi NNW 5.8 mph - N/A   Clear
9:15 PM 60.8 °F 51.8 °F 72% 30.19 in 10.0 mi NNW 6.9 mph - N/A   Clear
9:35 PM 60.8 °F 51.8 °F 72% 30.20 in 10.0 mi NE 3.5 mph - N/A   Clear
9:55 PM 60.8 °F 51.8 °F 72% 30.21 in 10.0 mi Calm Calm - N/A   Mostly Cloudy
10:15 PM 60.8 °F 51.8 °F 72% 30.21 in 10.0 mi NE 4.6 mph - N/A   Overcast
10:35 PM 59.0 °F 51.8 °F 77% 30.22 in 10.0 mi NE 4.6 mph - N/A Rain Rain
10:55 PM 59.0 °F 53.6 °F 82% 30.22 in 10.0 mi NNW 4.6 mph - N/A Rain Light Rain
11:15 PM 59.0 °F 51.8 °F 77% 30.24 in 10.0 mi Calm Calm - 0.01 in Rain Light Rain
11:35 PM 59.0 °F 51.8 °F 77% 30.25 in 7.0 mi Calm Calm - 0.02 in Rain Light Rain
11:55 PM 59.0 °F 53.6 °F 82% 30.25 in 10.0 mi West 8.1 mph - 0.05 in Rain Rain